RYR65SH EDLV-LEAL

Flight info

Callsign RYR65SH
Flight time 2h 24m
Altitude 24000
Route VEBAK2R VEBAK Z283 MODRU Z717 MAS/N0444F360 UM617 CIV/N0448F370 N872 MEDIL DCT KOVIN DCT DUCRA UM728 RESMI UN857 DISAK DCT DIRMO DCT GUERE DCT EVPOK DCT AGN DCT ANETO DCT POSSY DCT XIMPE DCT RIMES N860 VLC
Aircraft B738/M-SDE2E3FGHIRWXY/LB1

Departure

Time 2026-04-28 07:18
Airport Weeze (Niederrhein) Airport (EDLV)

Arrival

Time 2026-04-28 09:42
Airport Alicante-Elche Miguel Hernández Airport (LEAL)
Time Latitude Longitude Altitude Speed Heading
2026-04-28 06:50 51.59956 6.14866 111 ft 0 kts 89°
2026-04-28 07:09 51.59956 6.14833 111 ft 4 kts 99°
2026-04-28 07:09 51.59964 6.14800 107 ft 4 kts 161°
2026-04-28 07:09 51.59986 6.14797 111 ft 4 kts 187°
2026-04-28 07:09 51.60012 6.14800 110 ft 4 kts 184°
2026-04-28 07:10 51.60035 6.14811 110 ft 4 kts 230°
2026-04-28 07:10 51.60044 6.14847 110 ft 4 kts 269°
2026-04-28 07:10 51.60044 6.14869 111 ft 0 kts 271°
2026-04-28 07:12 51.60044 6.14855 111 ft 3 kts 272°
2026-04-28 07:12 51.60047 6.14775 109 ft 11 kts 275°
2026-04-28 07:12 51.60047 6.14628 108 ft 14 kts 267°
2026-04-28 07:13 51.60048 6.14474 109 ft 14 kts 272°
2026-04-28 07:13 51.60054 6.14274 110 ft 20 kts 272°
2026-04-28 07:13 51.60058 6.14055 112 ft 19 kts 272°
2026-04-28 07:13 51.60062 6.13843 113 ft 19 kts 272°
2026-04-28 07:14 51.60067 6.13628 111 ft 19 kts 272°
2026-04-28 07:14 51.60072 6.13417 111 ft 18 kts 272°
2026-04-28 07:14 51.60077 6.13202 109 ft 21 kts 274°
2026-04-28 07:14 51.60081 6.12969 107 ft 21 kts 271°
2026-04-28 07:15 51.60086 6.12743 107 ft 20 kts 271°
2026-04-28 07:15 51.60099 6.12524 109 ft 18 kts 279°
2026-04-28 07:15 51.60137 6.12463 109 ft 8 kts 358°
2026-04-28 07:15 51.60192 6.12462 110 ft 8 kts
2026-04-28 07:16 51.60244 6.12465 112 ft 7 kts
2026-04-28 07:16 51.60284 6.12503 110 ft 8 kts 78°
2026-04-28 07:16 51.60284 6.12534 110 ft 0 kts 91°
2026-04-28 07:17 51.60281 6.12706 109 ft 47 kts 92°
2026-04-28 07:17 51.60262 6.13608 116 ft 113 kts 92°
2026-04-28 07:18 51.60235 6.15171 167 ft 161 kts 87°
2026-04-28 07:18 51.60190 6.16961 919 ft 160 kts 88°
2026-04-28 07:18 51.60172 6.18787 1591 ft 168 kts 90°
2026-04-28 07:18 51.60122 6.20811 1942 ft 191 kts 92°
2026-04-28 07:19 51.60059 6.23080 2194 ft 212 kts 92°
2026-04-28 07:19 51.59991 6.25546 2458 ft 232 kts 93°
2026-04-28 07:19 51.59907 6.28203 2958 ft 243 kts 92°
2026-04-28 07:19 51.59848 6.30928 3803 ft 242 kts 91°
2026-04-28 07:20 51.59788 6.33640 4667 ft 244 kts 92°
2026-04-28 07:20 51.59728 6.36340 5413 ft 249 kts 92°
2026-04-28 07:20 51.59528 6.39174 6146 ft 255 kts 108°
2026-04-28 07:20 51.58564 6.41541 6849 ft 263 kts 133°
2026-04-28 07:21 51.56978 6.43025 7530 ft 274 kts 166°
2026-04-28 07:21 51.55069 6.42800 8242 ft 284 kts 200°
2026-04-28 07:21 51.53432 6.40996 8979 ft 289 kts 219°
2026-04-28 07:22 51.50021 6.37543 10376 ft 292 kts 202°
2026-04-28 07:22 51.48074 6.36209 10658 ft 311 kts 200°
2026-04-28 07:22 51.46020 6.34924 10835 ft 331 kts 199°
2026-04-28 07:22 51.43822 6.33608 11271 ft 341 kts 198°
2026-04-28 07:23 51.41586 6.32290 11942 ft 343 kts 198°
2026-04-28 07:23 51.39346 6.30970 12786 ft 341 kts 199°
2026-04-28 07:23 51.37131 6.29660 13656 ft 340 kts 199°
2026-04-28 07:23 51.34887 6.28335 14222 ft 347 kts 199°
2026-04-28 07:24 51.32614 6.26993 14883 ft 350 kts 199°
2026-04-28 07:24 51.30320 6.25645 15607 ft 351 kts 199°
2026-04-28 07:24 51.28017 6.24296 16260 ft 355 kts 199°
2026-04-28 07:24 51.25681 6.22930 16856 ft 360 kts 199°
2026-04-28 07:25 51.23317 6.21547 17494 ft 363 kts 199°
2026-04-28 07:25 51.20928 6.20151 18103 ft 368 kts 199°
2026-04-28 07:25 51.18515 6.18742 18741 ft 370 kts 199°
2026-04-28 07:25 51.16098 6.17333 19402 ft 369 kts 199°
2026-04-28 07:26 51.13684 6.15928 20047 ft 370 kts 200°
2026-04-28 07:26 51.11257 6.14522 20589 ft 373 kts 200°
2026-04-28 07:26 51.08808 6.13105 21135 ft 376 kts 200°
2026-04-28 07:26 51.06346 6.11683 21698 ft 378 kts 200°
2026-04-28 07:27 51.03908 6.10098 22244 ft 380 kts 209°
2026-04-28 07:27 51.01775 6.07618 22786 ft 382 kts 223°
2026-04-28 07:27 51.00032 6.04437 23348 ft 384 kts 236°
2026-04-28 07:27 50.98705 6.00744 23876 ft 386 kts 240°
2026-04-28 07:28 50.97464 5.96952 24310 ft 389 kts 244°
2026-04-28 07:28 50.96554 5.92898 24711 ft 393 kts 253°
2026-04-28 07:28 50.95856 5.88703 25154 ft 394 kts 253°
2026-04-28 07:28 50.95136 5.84507 25589 ft 395 kts 253°
2026-04-28 07:29 50.94402 5.80361 25992 ft 397 kts 253°
2026-04-28 07:29 50.93643 5.76138 26397 ft 399 kts 252°
2026-04-28 07:29 50.92877 5.71901 26803 ft 400 kts 253°
2026-04-28 07:29 50.92112 5.67649 27195 ft 402 kts 253°
2026-04-28 07:30 50.91344 5.63378 27568 ft 405 kts 252°
2026-04-28 07:30 50.90567 5.59058 27782 ft 410 kts 252°
2026-04-28 07:30 50.89782 5.54700 28151 ft 412 kts 252°
2026-04-28 07:30 50.88994 5.50340 28584 ft 412 kts 252°
2026-04-28 07:31 50.88204 5.45976 28934 ft 413 kts 252°
2026-04-28 07:31 50.87408 5.41590 29257 ft 416 kts 252°
2026-04-28 07:31 50.86606 5.37185 29573 ft 418 kts 252°
2026-04-28 07:31 50.85800 5.32762 29898 ft 419 kts 252°
2026-04-28 07:32 50.84988 5.28322 30212 ft 421 kts 252°
2026-04-28 07:32 50.84171 5.23869 30460 ft 423 kts 253°
2026-04-28 07:32 50.83349 5.19391 30674 ft 425 kts 253°
2026-04-28 07:32 50.82522 5.14901 30961 ft 426 kts 252°
2026-04-28 07:33 50.81690 5.10388 31162 ft 429 kts 252°
2026-04-28 07:33 50.80852 5.05864 31433 ft 429 kts 252°
2026-04-28 07:33 50.80013 5.01335 31729 ft 429 kts 252°
2026-04-28 07:33 50.79171 4.96801 31992 ft 430 kts 253°
2026-04-28 07:34 50.78327 4.92256 32231 ft 432 kts 253°
2026-04-28 07:34 50.77479 4.87703 32481 ft 432 kts 253°
2026-04-28 07:34 50.76631 4.83156 32880 ft 429 kts 253°
2026-04-28 07:34 50.75786 4.78637 33169 ft 430 kts 253°
2026-04-28 07:35 50.74935 4.74094 33327 ft 433 kts 253°
2026-04-28 07:35 50.74079 4.69533 33554 ft 434 kts 253°
2026-04-28 07:35 50.73220 4.64969 33870 ft 434 kts 253°
2026-04-28 07:35 50.72355 4.60391 34041 ft 436 kts 253°
2026-04-28 07:36 50.71484 4.55810 34362 ft 434 kts 253°
2026-04-28 07:36 50.70611 4.51244 34557 ft 436 kts 253°
2026-04-28 07:36 50.69731 4.46653 34693 ft 437 kts 253°
2026-04-28 07:36 50.68853 4.42084 35069 ft 433 kts 253°
2026-04-28 07:37 50.67980 4.37549 35277 ft 433 kts 253°
2026-04-28 07:37 50.67101 4.32990 35373 ft 436 kts 253°
2026-04-28 07:37 50.66220 4.28427 35628 ft 435 kts 253°
2026-04-28 07:37 50.65340 4.23883 35887 ft 433 kts 253°
2026-04-28 07:38 50.64456 4.19330 35990 ft 436 kts 253°
2026-04-28 07:38 50.63568 4.14759 36164 ft 436 kts 253°
2026-04-28 07:38 50.62680 4.10202 36423 ft 434 kts 253°
2026-04-28 07:38 50.61792 4.05660 36592 ft 435 kts 253°
2026-04-28 07:39 50.60004 3.96529 36929 ft 435 kts 253°
2026-04-28 07:39 50.59112 3.91986 37103 ft 434 kts 253°
2026-04-28 07:39 50.58084 3.87543 37096 ft 432 kts 242°
2026-04-28 07:40 50.56318 3.83756 37158 ft 431 kts 226°
2026-04-28 07:40 50.53958 3.80819 37148 ft 437 kts 210°
2026-04-28 07:40 50.48341 3.76953 37160 ft 445 kts 204°
2026-04-28 07:41 50.42600 3.73199 37159 ft 448 kts 205°
2026-04-28 07:41 50.36861 3.69314 37166 ft 450 kts 205°
2026-04-28 07:42 50.31163 3.65443 37143 ft 447 kts 205°
2026-04-28 07:42 50.25506 3.61626 37147 ft 440 kts 205°
2026-04-28 07:43 50.19903 3.57851 37153 ft 437 kts 205°
2026-04-28 07:43 50.14325 3.54098 37146 ft 436 kts 205°
2026-04-28 07:44 50.09696 3.50993 37145 ft 436 kts 205°
2026-04-28 07:44 50.04126 3.47264 37143 ft 436 kts 205°
2026-04-28 07:45 49.98551 3.43542 37138 ft 436 kts 205°
2026-04-28 07:45 49.92961 3.39820 37143 ft 438 kts 205°
2026-04-28 07:46 49.87356 3.36096 37139 ft 439 kts 206°
2026-04-28 07:46 49.81734 3.32371 37123 ft 440 kts 206°
2026-04-28 07:47 49.76094 3.28643 37131 ft 441 kts 206°
2026-04-28 07:47 49.70446 3.24919 37120 ft 442 kts 206°
2026-04-28 07:48 49.64793 3.21202 37123 ft 441 kts 206°
2026-04-28 07:48 49.59144 3.17495 37124 ft 441 kts 206°
2026-04-28 07:49 49.53503 3.13802 37116 ft 440 kts 206°
2026-04-28 07:49 49.47912 3.09983 37091 ft 437 kts 213°
2026-04-28 07:50 49.42859 3.04903 37109 ft 433 kts 217°
2026-04-28 07:50 49.37864 2.99744 37106 ft 432 kts 217°
2026-04-28 07:51 49.32864 2.94645 37106 ft 431 kts 216°
2026-04-28 07:51 49.27858 2.89585 37108 ft 431 kts 216°
2026-04-28 07:52 49.22861 2.84554 37109 ft 430 kts 217°
2026-04-28 07:52 49.17865 2.79535 37096 ft 429 kts 217°
2026-04-28 07:53 49.12875 2.74534 37099 ft 429 kts 216°
2026-04-28 07:53 49.07885 2.69543 37100 ft 429 kts 216°
2026-04-28 07:54 49.02896 2.64566 37106 ft 428 kts 216°
2026-04-28 07:54 48.97909 2.59602 37100 ft 428 kts 217°
2026-04-28 07:55 48.92918 2.54649 37103 ft 428 kts 216°
2026-04-28 07:55 48.87960 2.49736 37108 ft 429 kts 216°
2026-04-28 07:56 48.82960 2.44791 37112 ft 429 kts 216°
2026-04-28 07:56 48.77952 2.39848 37097 ft 429 kts 216°
2026-04-28 07:57 48.72943 2.34918 37108 ft 430 kts 216°
2026-04-28 07:57 48.67928 2.29992 37102 ft 430 kts 216°
2026-04-28 07:58 48.62908 2.25072 37084 ft 430 kts 216°
2026-04-28 07:58 48.57818 2.20317 37091 ft 433 kts 209°
2026-04-28 07:59 48.52066 2.17480 37101 ft 439 kts 195°
2026-04-28 07:59 48.46071 2.15653 37084 ft 440 kts 195°
2026-04-28 08:00 48.40083 2.13782 37063 ft 439 kts 196°
2026-04-28 08:00 48.34114 2.11866 37078 ft 439 kts 196°
2026-04-28 08:01 48.28081 2.10365 37073 ft 444 kts 186°
2026-04-28 08:01 48.21935 2.11235 37092 ft 449 kts 175°
2026-04-28 08:02 48.15764 2.12685 37071 ft 448 kts 176°
2026-04-28 08:02 48.09592 2.13616 37078 ft 443 kts 182°
2026-04-28 08:03 48.03437 2.13911 37068 ft 442 kts 182°
2026-04-28 08:03 47.97293 2.14173 37064 ft 441 kts 182°
2026-04-28 08:04 47.91173 2.14493 37069 ft 440 kts 182°
2026-04-28 08:04 47.85068 2.14843 37075 ft 439 kts 182°
2026-04-28 08:05 47.78975 2.15198 37069 ft 438 kts 182°
2026-04-28 08:05 47.72903 2.15551 37054 ft 436 kts 183°
2026-04-28 08:06 47.66839 2.15901 37068 ft 436 kts 183°
2026-04-28 08:06 47.60782 2.16249 37062 ft 435 kts 183°
2026-04-28 08:07 47.54729 2.16596 37051 ft 435 kts 183°
2026-04-28 08:07 47.48719 2.16940 37057 ft 435 kts 183°
2026-04-28 08:08 47.42666 2.17285 37058 ft 436 kts 183°
2026-04-28 08:08 47.36604 2.17631 37058 ft 436 kts 183°
2026-04-28 08:09 47.30536 2.17976 37054 ft 437 kts 183°
2026-04-28 08:09 47.24458 2.18321 37053 ft 437 kts 183°
2026-04-28 08:10 47.18370 2.18665 37054 ft 438 kts 183°
2026-04-28 08:10 47.12267 2.19010 37048 ft 439 kts 183°
2026-04-28 08:11 47.06173 2.19061 37049 ft 435 kts 189°
2026-04-28 08:11 47.00140 2.18329 37044 ft 435 kts 191°
2026-04-28 08:12 46.94103 2.17527 37032 ft 436 kts 190°
2026-04-28 08:12 46.88045 2.16783 37042 ft 437 kts 190°
2026-04-28 08:13 46.81978 2.16076 37045 ft 438 kts 190°
2026-04-28 08:13 46.75904 2.15379 37047 ft 438 kts 190°
2026-04-28 08:14 46.69827 2.14682 37046 ft 438 kts 190°
2026-04-28 08:14 46.63747 2.13986 37051 ft 438 kts 190°
2026-04-28 08:15 46.57669 2.13291 37047 ft 438 kts 190°
2026-04-28 08:15 46.51600 2.12598 37045 ft 437 kts 189°
2026-04-28 08:16 46.45540 2.11907 37042 ft 436 kts 189°
2026-04-28 08:16 46.39490 2.11220 37047 ft 436 kts 189°
2026-04-28 08:17 46.33493 2.10539 37035 ft 435 kts 190°
2026-04-28 08:17 46.27467 2.09857 37040 ft 434 kts 190°
2026-04-28 08:18 46.21487 2.08975 37035 ft 427 kts 198°
2026-04-28 08:18 46.16049 2.05951 37041 ft 415 kts 215°
2026-04-28 08:19 46.11329 2.01282 37029 ft 411 kts 220°
2026-04-28 08:19 46.06664 1.96507 37047 ft 412 kts 220°
2026-04-28 08:20 46.01970 1.91751 37032 ft 413 kts 219°
2026-04-28 08:20 45.97251 1.87010 37034 ft 414 kts 219°
2026-04-28 08:21 45.92520 1.82274 37022 ft 415 kts 219°
2026-04-28 08:21 45.87782 1.77542 37012 ft 415 kts 219°
2026-04-28 08:22 45.83039 1.72815 37021 ft 415 kts 219°
2026-04-28 08:22 45.78290 1.68091 37015 ft 415 kts 219°
2026-04-28 08:23 45.73542 1.63379 37011 ft 415 kts 219°
2026-04-28 08:23 45.68797 1.58679 37009 ft 414 kts 219°
2026-04-28 08:24 45.64063 1.53999 37014 ft 413 kts 219°
2026-04-28 08:24 45.59365 1.49365 37015 ft 413 kts 219°
2026-04-28 08:25 45.54643 1.44714 37006 ft 411 kts 219°
2026-04-28 08:26 45.47417 1.38118 37010 ft 415 kts 209°
2026-04-28 08:26 45.41852 1.35665 37026 ft 422 kts 198°
2026-04-28 08:27 45.36119 1.33862 37009 ft 421 kts 198°
2026-04-28 08:27 45.30414 1.32064 37016 ft 420 kts 198°
2026-04-28 08:28 45.24694 1.30230 37019 ft 420 kts 198°
2026-04-28 08:28 45.18992 1.28390 37019 ft 420 kts 198°
2026-04-28 08:29 45.13291 1.26550 37019 ft 420 kts 198°
2026-04-28 08:29 45.07595 1.24715 37018 ft 420 kts 198°
2026-04-28 08:30 45.01904 1.22887 37017 ft 419 kts 198°
2026-04-28 08:30 44.96212 1.21062 37021 ft 420 kts 198°
2026-04-28 08:31 44.90515 1.19239 37023 ft 420 kts 198°
2026-04-28 08:31 44.84847 1.17428 37020 ft 421 kts 198°
2026-04-28 08:32 44.79128 1.15606 37018 ft 421 kts 198°
2026-04-28 08:32 44.73410 1.13788 37028 ft 421 kts 198°
2026-04-28 08:33 44.67692 1.11974 37023 ft 421 kts 198°
2026-04-28 08:33 44.61977 1.10164 37022 ft 421 kts 198°
2026-04-28 08:34 44.56263 1.08357 37027 ft 421 kts 197°
2026-04-28 08:34 44.50552 1.06556 37025 ft 420 kts 197°
2026-04-28 08:35 44.45771 1.05051 37025 ft 420 kts 197°
2026-04-28 08:35 44.40108 1.03271 37013 ft 420 kts 197°
2026-04-28 08:36 44.34418 1.01486 37017 ft 419 kts 197°
2026-04-28 08:36 44.28729 0.99705 37034 ft 419 kts 197°
2026-04-28 08:37 44.23029 0.97923 37027 ft 420 kts 197°
2026-04-28 08:37 44.17331 0.96147 37027 ft 419 kts 197°
2026-04-28 08:38 44.11637 0.94375 37023 ft 419 kts 197°
2026-04-28 08:38 44.05948 0.92608 37036 ft 419 kts 197°
2026-04-28 08:39 44.00262 0.90845 37013 ft 419 kts 197°
2026-04-28 08:39 43.94580 0.89086 37028 ft 419 kts 197°
2026-04-28 08:40 43.88891 0.87329 37040 ft 419 kts 196°
2026-04-28 08:40 43.83158 0.85720 37030 ft 421 kts 195°
2026-04-28 08:41 43.77397 0.84209 37029 ft 422 kts 194°
2026-04-28 08:41 43.71614 0.82686 37045 ft 425 kts 195°
2026-04-28 08:42 43.65769 0.81131 37031 ft 430 kts 195°
2026-04-28 08:42 43.59904 0.79570 37029 ft 428 kts 194°
2026-04-28 08:43 43.54074 0.78021 37031 ft 426 kts 194°
2026-04-28 08:43 43.48257 0.76476 37039 ft 426 kts 194°
2026-04-28 08:44 43.42450 0.74936 37019 ft 424 kts 194°
2026-04-28 08:44 43.36678 0.73410 37027 ft 421 kts 194°
2026-04-28 08:45 43.30942 0.71896 37037 ft 419 kts 194°
2026-04-28 08:45 43.25232 0.70391 37039 ft 417 kts 194°
2026-04-28 08:46 43.19539 0.68893 37033 ft 417 kts 194°
2026-04-28 08:46 43.13842 0.67398 37046 ft 417 kts 194°
2026-04-28 08:47 43.08127 0.65900 37049 ft 419 kts 194°
2026-04-28 08:47 43.02381 0.64396 37041 ft 422 kts 194°
2026-04-28 08:48 42.96601 0.62889 37039 ft 424 kts 194°
2026-04-28 08:48 42.90805 0.61378 37051 ft 424 kts 194°
2026-04-28 08:49 42.85011 0.59871 37043 ft 423 kts 194°
2026-04-28 08:49 42.79256 0.58378 37052 ft 425 kts 194°
2026-04-28 08:50 42.73453 0.56870 37043 ft 425 kts 194°
2026-04-28 08:50 42.67750 0.54920 37051 ft 420 kts 206°
2026-04-28 08:51 42.62473 0.51539 37037 ft 418 kts 208°
2026-04-28 08:51 42.57235 0.48118 37033 ft 418 kts 207°
2026-04-28 08:52 42.51966 0.44727 37052 ft 419 kts 207°
2026-04-28 08:52 42.46674 0.41346 37057 ft 421 kts 207°
2026-04-28 08:53 42.41354 0.37967 37020 ft 423 kts 207°
2026-04-28 08:53 42.36040 0.34593 37013 ft 422 kts 207°
2026-04-28 08:54 42.30736 0.31231 37016 ft 421 kts 207°
2026-04-28 08:54 42.25445 0.27885 37028 ft 419 kts 207°
2026-04-28 08:55 42.20170 0.24554 37027 ft 418 kts 207°
2026-04-28 08:55 42.14908 0.21238 37014 ft 417 kts 207°
2026-04-28 08:56 42.09661 0.17938 37015 ft 415 kts 207°
2026-04-28 08:56 42.04214 0.15354 37016 ft 418 kts 192°
2026-04-28 08:57 41.98415 0.14447 37001 ft 420 kts 188°
2026-04-28 08:57 41.92645 0.13644 37014 ft 420 kts 188°
2026-04-28 08:58 41.86836 0.12803 37021 ft 420 kts 189°
2026-04-28 08:58 41.81018 0.11938 37019 ft 421 kts 189°
2026-04-28 08:59 41.75194 0.11067 37011 ft 421 kts 188°
2026-04-28 08:59 41.69360 0.10197 37019 ft 422 kts 188°
2026-04-28 09:00 41.63515 0.09326 37016 ft 423 kts 188°
2026-04-28 09:00 41.57665 0.08456 37017 ft 423 kts 188°
2026-04-28 09:01 41.51814 0.07588 37023 ft 423 kts 188°
2026-04-28 09:01 41.45951 0.06720 37015 ft 424 kts 188°
2026-04-28 09:02 41.40086 0.05853 37014 ft 424 kts 188°
2026-04-28 09:02 41.34212 0.04986 37008 ft 425 kts 188°
2026-04-28 09:03 41.28341 0.04122 37012 ft 425 kts 188°
2026-04-28 09:03 41.22468 0.03258 37011 ft 425 kts 188°
2026-04-28 09:04 41.16595 0.02396 37009 ft 425 kts 188°
2026-04-28 09:04 41.10724 0.01536 37011 ft 424 kts 188°
2026-04-28 09:05 41.04859 0.00681 37019 ft 424 kts 188°
2026-04-28 09:05 40.98989 -0.00171 37014 ft 424 kts 188°
2026-04-28 09:06 40.93165 -0.01015 37016 ft 424 kts 188°
2026-04-28 09:06 40.87305 -0.01863 37013 ft 423 kts 188°
2026-04-28 09:07 40.81449 -0.02709 37020 ft 423 kts 188°
2026-04-28 09:07 40.75594 -0.03554 37016 ft 423 kts 188°
2026-04-28 09:08 40.69739 -0.04398 37019 ft 423 kts 188°
2026-04-28 09:08 40.63885 -0.05240 37022 ft 423 kts 188°
2026-04-28 09:09 40.58030 -0.06080 37020 ft 423 kts 188°
2026-04-28 09:09 40.52301 -0.07665 37042 ft 420 kts 198°
2026-04-28 09:10 40.46707 -0.09947 37019 ft 421 kts 198°
2026-04-28 09:10 40.41102 -0.12200 36834 ft 422 kts 198°
2026-04-28 09:10 40.38304 -0.13307 36583 ft 416 kts 198°
2026-04-28 09:11 40.35553 -0.14389 36186 ft 411 kts 198°
2026-04-28 09:11 40.32835 -0.15457 35847 ft 406 kts 198°
2026-04-28 09:11 40.30139 -0.16516 35455 ft 403 kts 198°
2026-04-28 09:11 40.27464 -0.17567 35075 ft 400 kts 198°
2026-04-28 09:12 40.24811 -0.18608 34685 ft 397 kts 198°
2026-04-28 09:12 40.22168 -0.19651 34262 ft 396 kts 198°
2026-04-28 09:12 40.19542 -0.20689 33872 ft 393 kts 198°
2026-04-28 09:12 40.16932 -0.21722 33460 ft 391 kts 198°
2026-04-28 09:13 40.14340 -0.22747 33067 ft 388 kts 198°
2026-04-28 09:13 40.11765 -0.23764 32694 ft 385 kts 198°
2026-04-28 09:13 40.09211 -0.24772 32323 ft 382 kts 198°
2026-04-28 09:13 40.06674 -0.25772 31974 ft 380 kts 198°
2026-04-28 09:14 40.04155 -0.26765 31614 ft 377 kts 198°
2026-04-28 09:14 40.01652 -0.27750 31260 ft 375 kts 198°
2026-04-28 09:14 39.99162 -0.28725 30897 ft 372 kts 198°
2026-04-28 09:14 39.96686 -0.29682 30548 ft 370 kts 197°
2026-04-28 09:15 39.94222 -0.30629 30199 ft 368 kts 197°
2026-04-28 09:15 39.91769 -0.31572 29797 ft 366 kts 198°
2026-04-28 09:15 39.89336 -0.32507 29420 ft 363 kts 197°
2026-04-28 09:15 39.86922 -0.33441 29037 ft 361 kts 198°
2026-04-28 09:16 39.84529 -0.34372 28671 ft 357 kts 198°
2026-04-28 09:16 39.82153 -0.35298 28308 ft 356 kts 198°
2026-04-28 09:16 39.79787 -0.36220 27936 ft 354 kts 198°
2026-04-28 09:16 39.77442 -0.37133 27610 ft 352 kts 198°
2026-04-28 09:17 39.75088 -0.38049 27254 ft 354 kts 198°
2026-04-28 09:17 39.72756 -0.38955 26910 ft 354 kts 198°
2026-04-28 09:17 39.70401 -0.39869 26547 ft 352 kts 198°
2026-04-28 09:17 39.68058 -0.40777 26201 ft 350 kts 198°
2026-04-28 09:18 39.65704 -0.41689 25845 ft 348 kts 198°
2026-04-28 09:18 39.63423 -0.42572 25507 ft 346 kts 198°
2026-04-28 09:18 39.61123 -0.43462 25162 ft 344 kts 198°
2026-04-28 09:18 39.58838 -0.44346 24822 ft 342 kts 198°
2026-04-28 09:19 39.56560 -0.45227 24474 ft 340 kts 198°
2026-04-28 09:19 39.54298 -0.46101 24146 ft 339 kts 197°
2026-04-28 09:19 39.52045 -0.46970 23812 ft 337 kts 197°
2026-04-28 09:19 39.49802 -0.47835 23449 ft 336 kts 197°
2026-04-28 09:20 39.47565 -0.48687 23066 ft 334 kts 197°
2026-04-28 09:20 39.45336 -0.49496 22706 ft 332 kts 196°
2026-04-28 09:20 39.43118 -0.50286 22362 ft 329 kts 196°
2026-04-28 09:20 39.40918 -0.51065 22033 ft 327 kts 196°
2026-04-28 09:21 39.38733 -0.51840 21697 ft 324 kts 196°
2026-04-28 09:21 39.36567 -0.52610 21368 ft 322 kts 196°
2026-04-28 09:21 39.34415 -0.53376 21039 ft 320 kts 196°
2026-04-28 09:21 39.32279 -0.54137 20720 ft 317 kts 196°
2026-04-28 09:22 39.30875 -0.54637 20517 ft 316 kts 196°
2026-04-28 09:22 39.28760 -0.55390 20199 ft 314 kts 196°
2026-04-28 09:22 39.26658 -0.56139 19880 ft 313 kts 196°
2026-04-28 09:22 39.24568 -0.56883 19570 ft 311 kts 196°
2026-04-28 09:23 39.22489 -0.57623 19259 ft 309 kts 196°
2026-04-28 09:23 39.20420 -0.58359 18945 ft 308 kts 196°
2026-04-28 09:23 39.18358 -0.59092 18630 ft 307 kts 196°
2026-04-28 09:23 39.16303 -0.59822 18324 ft 306 kts 196°
2026-04-28 09:24 39.14256 -0.60549 17966 ft 305 kts 196°
2026-04-28 09:24 39.12220 -0.61272 17639 ft 303 kts 196°
2026-04-28 09:24 39.10194 -0.61990 17317 ft 301 kts 196°
2026-04-28 09:24 39.08184 -0.62703 17003 ft 299 kts 196°
2026-04-28 09:25 39.06183 -0.63412 16689 ft 297 kts 196°
2026-04-28 09:25 39.04197 -0.64115 16382 ft 295 kts 196°
2026-04-28 09:25 39.02222 -0.64814 16074 ft 293 kts 196°
2026-04-28 09:25 39.00261 -0.65507 15764 ft 292 kts 196°
2026-04-28 09:26 38.98310 -0.66197 15470 ft 290 kts 197°
2026-04-28 09:26 38.96361 -0.66885 15180 ft 292 kts 196°
2026-04-28 09:26 38.94392 -0.67581 14883 ft 294 kts 196°
2026-04-28 09:26 38.92423 -0.68276 14564 ft 293 kts 196°
2026-04-28 09:27 38.88507 -0.69656 13954 ft 291 kts 196°
2026-04-28 09:27 38.86560 -0.70342 13631 ft 290 kts 196°
2026-04-28 09:27 38.84621 -0.71025 13308 ft 288 kts 196°
2026-04-28 09:28 38.82696 -0.71702 12989 ft 287 kts 196°
2026-04-28 09:28 38.80776 -0.72377 12683 ft 285 kts 196°
2026-04-28 09:28 38.78868 -0.73047 12383 ft 284 kts 196°
2026-04-28 09:28 38.76970 -0.73714 12090 ft 282 kts 196°
2026-04-28 09:29 38.75088 -0.74375 11791 ft 280 kts 196°
2026-04-28 09:29 38.73213 -0.75033 11507 ft 279 kts 197°
2026-04-28 09:29 38.71371 -0.75679 11217 ft 278 kts 196°
2026-04-28 09:29 38.69509 -0.76332 10919 ft 277 kts 197°
2026-04-28 09:30 38.67654 -0.76982 10626 ft 276 kts 196°
2026-04-28 09:30 38.65805 -0.77630 10340 ft 275 kts 196°
2026-04-28 09:30 38.63970 -0.78272 10148 ft 270 kts 197°
2026-04-28 09:30 38.62182 -0.78897 9981 ft 264 kts 197°
2026-04-28 09:31 38.60412 -0.79517 9667 ft 263 kts 197°
2026-04-28 09:31 38.58652 -0.80132 9478 ft 259 kts 196°
2026-04-28 09:31 38.56966 -0.80720 9365 ft 252 kts 197°
2026-04-28 09:31 38.55277 -0.81309 9247 ft 245 kts 196°
2026-04-28 09:32 38.53761 -0.82178 9108 ft 236 kts 221°
2026-04-28 09:32 38.52620 -0.83646 8927 ft 235 kts 227°
2026-04-28 09:32 38.51540 -0.85241 8717 ft 238 kts 227°
2026-04-28 09:32 38.50411 -0.86795 8455 ft 239 kts 225°
2026-04-28 09:33 38.49217 -0.88267 8205 ft 238 kts 221°
2026-04-28 09:33 38.47971 -0.89649 7948 ft 237 kts 219°
2026-04-28 09:33 38.46674 -0.90947 7693 ft 236 kts 216°
2026-04-28 09:33 38.45346 -0.92177 7441 ft 236 kts 214°
2026-04-28 09:34 38.43976 -0.93333 7193 ft 236 kts 211°
2026-04-28 09:34 38.42561 -0.94390 6940 ft 235 kts 208°
2026-04-28 09:34 38.41102 -0.95331 6688 ft 235 kts 204°
2026-04-28 09:34 38.39604 -0.96156 6439 ft 234 kts 201°
2026-04-28 09:35 38.38091 -0.96916 6179 ft 233 kts 200°
2026-04-28 09:35 38.36575 -0.97604 5912 ft 230 kts 189°
2026-04-28 09:35 38.35036 -0.97317 5704 ft 226 kts 152°
2026-04-28 09:35 38.33932 -0.95926 5566 ft 228 kts 114°
2026-04-28 09:36 38.33583 -0.93958 5368 ft 229 kts 100°
2026-04-28 09:36 38.33329 -0.91996 5118 ft 226 kts 102°
2026-04-28 09:36 38.33053 -0.90048 4990 ft 218 kts 102°
2026-04-28 09:36 38.32789 -0.88183 4841 ft 216 kts 102°
2026-04-28 09:37 38.32524 -0.86324 4578 ft 212 kts 102°
2026-04-28 09:37 38.32261 -0.84483 4315 ft 209 kts 101°
2026-04-28 09:37 38.32003 -0.82674 4046 ft 206 kts 101°
2026-04-28 09:37 38.31750 -0.80890 3778 ft 203 kts 101°
2026-04-28 09:38 38.31500 -0.79130 3508 ft 200 kts 100°
2026-04-28 09:38 38.31256 -0.77404 3258 ft 196 kts 100°
2026-04-28 09:38 38.31016 -0.75710 2993 ft 192 kts 99°
2026-04-28 09:38 38.30782 -0.74066 2741 ft 184 kts 99°
2026-04-28 09:39 38.30563 -0.72513 2493 ft 173 kts 98°
2026-04-28 09:39 38.30357 -0.71052 2261 ft 161 kts 99°
2026-04-28 09:39 38.30170 -0.69727 2105 ft 143 kts 98°
2026-04-28 09:39 38.29994 -0.68482 1884 ft 141 kts 98°
2026-04-28 09:40 38.29821 -0.67247 1704 ft 142 kts 98°
2026-04-28 09:40 38.29649 -0.66023 1505 ft 139 kts 98°
2026-04-28 09:40 38.29480 -0.64810 1359 ft 139 kts 98°
2026-04-28 09:40 38.29308 -0.63589 1139 ft 143 kts 98°
2026-04-28 09:41 38.29134 -0.62353 920 ft 142 kts 99°
2026-04-28 09:41 38.28963 -0.61128 759 ft 140 kts 101°
2026-04-28 09:41 38.28792 -0.59891 595 ft 144 kts 100°
2026-04-28 09:41 38.28614 -0.58647 384 ft 141 kts 101°
2026-04-28 09:42 38.28447 -0.57447 185 ft 135 kts 102°
2026-04-28 09:42 38.28290 -0.56337 117 ft 116 kts 102°
2026-04-28 09:42 38.28159 -0.55438 86 ft 90 kts 98°
2026-04-28 09:42 38.28118 -0.55002 70 ft 31 kts 71°
2026-04-28 09:43 38.28183 -0.54758 58 ft 18 kts 71°
2026-04-28 09:43 38.28240 -0.54744 63 ft 11 kts 289°
2026-04-28 09:43 38.28257 -0.54838 62 ft 11 kts 284°
2026-04-28 09:43 38.28275 -0.54957 68 ft 15 kts 278°
2026-04-28 09:44 38.28292 -0.55084 75 ft 15 kts 278°
2026-04-28 09:44 38.28329 -0.55202 82 ft 15 kts 333°
2026-04-28 09:44 38.28402 -0.55131 87 ft 14 kts 58°
2026-04-28 09:44 38.28424 -0.55019 86 ft 11 kts 73°
2026-04-28 09:45 38.28489 -0.54976 88 ft 11 kts
2026-04-28 09:45 38.28564 -0.54958 87 ft 11 kts 10°
2026-04-28 09:45 38.28638 -0.54941 87 ft 11 kts 11°
2026-04-28 09:45 38.28681 -0.54961 88 ft 6 kts 285°
2026-04-28 09:46 38.28688 -0.55007 93 ft 2 kts 279°
2026-04-28 09:46 38.28690 -0.55023 93 ft 2 kts 279°
2026-04-28 09:46 38.28690 -0.55024 93 ft 0 kts 279°